Time,TemperatureF,DewpointF,PressureIn,WindDirection,WindDirectionDegrees,WindSpeedMPH,WindSpeedGustMPH,Humidity,HourlyPrecipIn,Conditions,Clouds,dailyrainin,SolarRadiationWatts/m^2,SoftwareType,DateUTC
2013-07-10 00:06:00,62.0,48.4,29.76,SSE,155,0.0,0.0,61,0.00,,,0.00,0,Wunderground v.1.15,2013-07-10 06:06:00,
2013-07-10 00:13:00,61.8,47.8,29.76,SSE,155,0.0,0.0,60,0.00,,,0.00,0,Wunderground v.1.15,2013-07-10 06:13:00,
2013-07-10 00:19:00,61.6,47.1,29.76,SSE,155,0.0,0.0,59,0.00,,,0.00,0,Wunderground v.1.15,2013-07-10 06:19:00,
2013-07-10 00:24:00,61.6,47.6,29.76,SSE,155,0.0,0.0,60,0.00,,,0.00,0,Wunderground v.1.15,2013-07-10 06:24:00,
2013-07-10 00:30:00,61.6,47.6,29.77,SSE,155,0.0,0.0,60,0.00,,,0.00,0,Wunderground v.1.15,2013-07-10 06:30:00,
2013-07-10 00:36:00,61.5,46.6,29.77,SSE,155,0.0,0.0,58,0.00,,,0.00,0,Wunderground v.1.15,2013-07-10 06:36:00,
2013-07-10 00:41:00,61.6,46.7,29.77,SSE,155,0.0,0.0,58,0.00,,,0.00,0,Wunderground v.1.15,2013-07-10 06:41:00,
2013-07-10 00:47:00,61.6,46.7,29.77,SSE,155,0.0,0.0,58,0.00,,,0.00,0,Wunderground v.1.15,2013-07-10 06:47:00,
2013-07-10 00:53:00,61.6,46.7,29.77,SSE,155,0.0,0.0,58,0.00,,,0.00,0,Wunderground v.1.15,2013-07-10 06:53:00,
2013-07-10 00:59:00,61.6,46.7,29.76,SSE,155,0.0,0.0,58,0.00,,,0.00,0,Wunderground v.1.15,2013-07-10 06:59:00,
2013-07-10 01:06:00,61.5,47.5,29.76,SSE,155,0.0,0.0,60,0.00,,,0.00,0,Wunderground v.1.15,2013-07-10 07:06:00,
2013-07-10 01:13:00,61.2,48.1,29.76,SSE,155,0.0,0.0,62,0.00,,,0.00,0,Wunderground v.1.15,2013-07-10 07:13:00,
2013-07-10 01:18:00,60.9,48.2,29.77,SSE,155,0.0,0.0,63,0.00,,,0.00,0,Wunderground v.1.15,2013-07-10 07:18:00,
2013-07-10 01:23:00,60.5,48.3,29.77,SSE,155,0.0,0.0,64,0.00,,,0.00,0,Wunderground v.1.15,2013-07-10 07:23:00,
2013-07-10 01:29:00,60.2,48.4,29.76,SSE,155,0.0,0.0,65,0.00,,,0.00,0,Wunderground v.1.15,2013-07-10 07:29:00,
2013-07-10 01:36:00,59.8,48.0,29.76,SSE,155,0.0,0.0,65,0.00,,,0.00,0,Wunderground v.1.15,2013-07-10 07:36:00,
2013-07-10 01:43:00,59.5,47.7,29.76,SSE,155,0.0,0.0,65,0.00,,,0.00,0,Wunderground v.1.15,2013-07-10 07:43:00,
2013-07-10 01:48:00,59.2,47.8,29.75,SSE,155,0.0,0.0,66,0.00,,,0.00,0,Wunderground v.1.15,2013-07-10 07:48:00,
2013-07-10 01:53:00,59.2,47.8,29.75,SSE,155,0.0,0.0,66,0.00,,,0.00,0,Wunderground v.1.15,2013-07-10 07:53:00,
2013-07-10 01:59:00,59.0,48.1,29.75,SSE,155,0.0,0.0,67,0.00,,,0.00,0,Wunderground v.1.15,2013-07-10 07:59:00,
2013-07-10 02:04:00,58.9,47.6,29.75,SSE,155,0.0,0.0,66,0.00,,,0.00,0,Wunderground v.1.15,2013-07-10 08:04:00,
2013-07-10 02:09:00,58.9,47.6,29.75,SSE,155,0.0,0.0,66,0.00,,,0.00,0,Wunderground v.1.15,2013-07-10 08:09:00,
2013-07-10 02:14:00,58.9,47.2,29.75,SSE,155,0.0,0.0,65,0.00,,,0.00,0,Wunderground v.1.15,2013-07-10 08:14:00,
2013-07-10 02:19:00,58.9,47.2,29.75,SSE,155,7.0,8.0,65,0.00,,,0.00,0,Wunderground v.1.15,2013-07-10 08:19:00,
2013-07-10 02:24:00,58.9,46.7,29.75,SSE,155,7.0,8.0,64,0.00,,,0.00,0,Wunderground v.1.15,2013-07-10 08:24:00,
2013-07-10 02:29:00,59.0,46.4,29.75,SSE,155,7.0,8.0,63,0.00,,,0.00,0,Wunderground v.1.15,2013-07-10 08:29:00,
2013-07-10 02:34:00,59.2,46.2,29.75,SSE,155,6.0,8.0,62,0.00,,,0.00,0,Wunderground v.1.15,2013-07-10 08:34:00,
2013-07-10 02:39:00,59.2,47.0,29.75,SSE,155,6.0,8.0,64,0.00,,,0.00,0,Wunderground v.1.15,2013-07-10 08:39:00,
2013-07-10 02:44:00,59.0,47.2,29.75,SSE,155,6.0,7.0,65,0.00,,,0.00,0,Wunderground v.1.15,2013-07-10 08:44:00,
2013-07-10 02:49:00,58.7,47.0,29.75,SSE,155,8.0,8.0,65,0.00,,,0.00,0,Wunderground v.1.15,2013-07-10 08:49:00,
2013-07-10 02:54:00,58.3,47.0,29.75,SSE,155,7.0,8.0,66,0.00,,,0.00,0,Wunderground v.1.15,2013-07-10 08:54:00,
2013-07-10 02:59:00,58.0,46.7,29.75,SSE,155,7.0,8.0,66,0.00,,,0.00,0,Wunderground v.1.15,2013-07-10 08:59:00,
2013-07-10 03:04:00,57.5,46.6,29.75,SSE,155,9.0,10.0,67,0.00,,,0.00,0,Wunderground v.1.15,2013-07-10 09:04:00,
2013-07-10 03:09:00,57.2,46.3,29.75,SSE,155,9.0,11.0,67,0.00,,,0.00,0,Wunderground v.1.15,2013-07-10 09:09:00,
2013-07-10 03:14:00,57.0,46.9,29.76,SSE,155,8.0,10.0,69,0.00,,,0.00,0,Wunderground v.1.15,2013-07-10 09:14:00,
2013-07-10 03:19:00,56.9,46.4,29.76,SSE,155,6.0,10.0,68,0.00,,,0.00,0,Wunderground v.1.15,2013-07-10 09:19:00,
2013-07-10 03:24:00,56.9,46.1,29.76,SSE,155,6.0,9.0,67,0.00,,,0.00,0,Wunderground v.1.15,2013-07-10 09:24:00,
2013-07-10 03:29:00,56.9,46.4,29.76,SSE,155,5.0,9.0,68,0.00,,,0.00,0,Wunderground v.1.15,2013-07-10 09:29:00,
2013-07-10 03:34:00,56.9,46.4,29.76,SSE,155,8.0,9.0,68,0.00,,,0.00,0,Wunderground v.1.15,2013-07-10 09:34:00,
2013-07-10 03:39:00,56.9,46.8,29.76,SSE,155,6.0,9.0,69,0.00,,,0.00,0,Wunderground v.1.15,2013-07-10 09:39:00,
2013-07-10 03:44:00,56.7,46.6,29.76,SSE,155,7.0,9.0,69,0.00,,,0.00,0,Wunderground v.1.15,2013-07-10 09:44:00,
2013-07-10 03:50:00,56.6,46.5,29.76,SSE,155,6.0,6.0,69,0.00,,,0.00,0,Wunderground v.1.15,2013-07-10 09:50:00,
2013-07-10 03:55:00,56.6,46.5,29.76,SSE,155,8.0,9.0,69,0.00,,,0.00,0,Wunderground v.1.15,2013-07-10 09:55:00,
2013-07-10 04:00:00,56.5,46.8,29.76,SSE,155,9.0,9.0,70,0.00,,,0.00,0,Wunderground v.1.15,2013-07-10 10:00:00,
2013-07-10 04:05:00,56.3,46.6,29.76,SSE,155,7.0,9.0,70,0.00,,,0.00,0,Wunderground v.1.15,2013-07-10 10:05:00,
2013-07-10 04:10:00,56.2,46.5,29.76,SSE,155,6.0,7.0,70,0.00,,,0.00,0,Wunderground v.1.15,2013-07-10 10:10:00,
2013-07-10 04:16:00,56.0,46.4,29.77,SSE,155,0.0,8.0,70,0.00,,,0.00,0,Wunderground v.1.15,2013-07-10 10:16:00,
2013-07-10 04:21:00,55.9,46.6,29.77,SSE,155,0.0,2.0,71,0.00,,,0.00,0,Wunderground v.1.15,2013-07-10 10:21:00,
2013-07-10 04:26:00,55.6,46.3,29.77,SSE,155,0.0,2.0,71,0.00,,,0.00,0,Wunderground v.1.15,2013-07-10 10:26:00,
2013-07-10 04:31:00,55.4,46.5,29.77,SSE,155,4.0,8.0,72,0.00,,,0.00,0,Wunderground v.1.15,2013-07-10 10:31:00,
2013-07-10 04:36:00,55.1,46.2,29.77,SSE,155,9.0,9.0,72,0.00,,,0.00,0,Wunderground v.1.15,2013-07-10 10:36:00,
2013-07-10 04:41:00,54.8,45.9,29.77,SSE,155,8.0,8.0,72,0.00,,,0.00,0,Wunderground v.1.15,2013-07-10 10:41:00,
2013-07-10 04:47:00,54.7,45.8,29.77,SSE,155,8.0,8.0,72,0.00,,,0.00,0,Wunderground v.1.15,2013-07-10 10:47:00,
2013-07-10 04:52:00,54.4,45.9,29.77,SSE,155,8.0,9.0,73,0.00,,,0.00,0,Wunderground v.1.15,2013-07-10 10:52:00,
2013-07-10 04:57:00,54.2,46.1,29.77,SSE,155,8.0,10.0,74,0.00,,,0.00,0,Wunderground v.1.15,2013-07-10 10:57:00,
2013-07-10 05:02:00,54.1,46.0,29.77,SSE,155,8.0,9.0,74,0.00,,,0.00,0,Wunderground v.1.15,2013-07-10 11:02:00,
2013-07-10 05:07:00,53.9,45.8,29.77,SSE,155,8.0,9.0,74,0.00,,,0.00,0,Wunderground v.1.15,2013-07-10 11:07:00,
2013-07-10 05:14:00,53.8,46.1,29.77,SSE,155,6.0,8.0,75,0.00,,,0.00,0,Wunderground v.1.15,2013-07-10 11:14:00,
2013-07-10 05:19:00,53.6,45.9,29.77,SSE,155,8.0,8.0,75,0.00,,,0.00,0,Wunderground v.1.15,2013-07-10 11:19:00,
2013-07-10 05:24:00,53.6,45.9,29.77,SSE,155,8.0,9.0,75,0.00,,,0.00,0,Wunderground v.1.15,2013-07-10 11:24:00,
2013-07-10 05:29:00,53.5,45.8,29.78,SSE,163,8.0,10.0,75,0.00,,,0.00,0,Wunderground v.1.15,2013-07-10 11:29:00,
2013-07-10 05:40:00,53.3,45.9,29.78,SSE,164,7.0,7.0,76,0.00,,,0.00,0,Wunderground v.1.15,2013-07-10 11:40:00,
2013-07-10 05:45:00,53.2,45.8,29.79,SSE,164,9.0,9.0,76,0.00,,,0.00,0,Wunderground v.1.15,2013-07-10 11:45:00,
2013-07-10 05:50:00,53.2,46.2,29.79,South,169,9.0,10.0,77,0.00,,,0.00,0,Wunderground v.1.15,2013-07-10 11:50:00,
2013-07-10 05:55:00,53.1,45.7,29.79,South,171,7.0,10.0,76,0.00,,,0.00,5,Wunderground v.1.15,2013-07-10 11:55:00,
2013-07-10 06:00:00,53.1,45.7,29.79,South,171,6.0,8.0,76,0.00,,,0.00,7,Wunderground v.1.15,2013-07-10 12:00:00,
2013-07-10 06:05:00,52.9,45.5,29.79,South,171,5.0,8.0,76,0.00,,,0.00,9,Wunderground v.1.15,2013-07-10 12:05:00,
2013-07-10 06:10:00,52.9,45.5,29.79,South,171,6.0,6.0,76,0.00,,,0.00,11,Wunderground v.1.15,2013-07-10 12:10:00,
2013-07-10 06:16:00,52.9,45.5,29.79,South,171,5.0,6.0,76,0.00,,,0.00,18,Wunderground v.1.15,2013-07-10 12:16:00,
2013-07-10 06:21:00,52.8,45.8,29.79,South,171,4.0,5.0,77,0.00,,,0.00,21,Wunderground v.1.15,2013-07-10 12:21:00,
2013-07-10 06:26:00,52.8,46.1,29.79,South,171,7.0,7.0,78,0.00,,,0.00,30,Wunderground v.1.15,2013-07-10 12:26:00,
2013-07-10 06:31:00,52.8,46.1,29.79,South,171,5.0,7.0,78,0.00,,,0.00,47,Wunderground v.1.15,2013-07-10 12:31:00,
2013-07-10 06:37:00,52.8,46.1,29.79,South,173,6.0,7.0,78,0.00,,,0.00,46,Wunderground v.1.15,2013-07-10 12:37:00,
2013-07-10 06:42:00,52.9,46.6,29.79,South,173,6.0,7.0,79,0.00,,,0.00,65,Wunderground v.1.15,2013-07-10 12:42:00,
2013-07-10 06:47:00,53.2,46.9,29.80,South,173,4.0,7.0,79,0.00,,,0.00,93,Wunderground v.1.15,2013-07-10 12:47:00,
2013-07-10 06:53:00,53.5,47.1,29.80,South,174,4.0,5.0,79,0.00,,,0.00,98,Wunderground v.1.15,2013-07-10 12:53:00,
2013-07-10 06:58:00,53.9,47.2,29.80,South,174,0.0,6.0,78,0.00,,,0.00,125,Wunderground v.1.15,2013-07-10 12:58:00,
2013-07-10 07:04:00,54.4,47.3,29.81,South,180,0.0,2.0,77,0.00,,,0.00,95,Wunderground v.1.15,2013-07-10 13:04:00,
2013-07-10 07:09:00,55.0,47.9,29.81,South,181,0.0,2.0,77,0.00,,,0.00,153,Wunderground v.1.15,2013-07-10 13:09:00,
2013-07-10 07:14:00,55.4,48.3,29.81,SSW,195,0.0,0.0,77,0.00,,,0.00,174,Wunderground v.1.15,2013-07-10 13:14:00,
2013-07-10 07:19:00,56.0,48.2,29.81,WSW,257,0.0,0.0,75,0.00,,,0.00,190,Wunderground v.1.15,2013-07-10 13:19:00,
2013-07-10 07:24:00,56.6,48.8,29.81,WSW,257,0.0,0.0,75,0.00,,,0.00,209,Wunderground v.1.15,2013-07-10 13:24:00,
2013-07-10 07:29:00,57.2,49.0,29.81,WSW,257,0.0,0.0,74,0.00,,,0.00,230,Wunderground v.1.15,2013-07-10 13:29:00,
2013-07-10 07:34:00,57.8,48.8,29.81,WSW,257,0.0,0.0,72,0.00,,,0.00,239,Wunderground v.1.15,2013-07-10 13:34:00,
2013-07-10 07:39:00,58.6,49.2,29.81,WSW,257,0.0,0.0,71,0.00,,,0.00,264,Wunderground v.1.15,2013-07-10 13:39:00,
2013-07-10 07:44:00,59.3,49.1,29.81,WSW,257,0.0,0.0,69,0.00,,,0.00,290,Wunderground v.1.15,2013-07-10 13:44:00,
2013-07-10 07:49:00,60.1,50.3,29.81,WSW,257,0.0,0.0,70,0.00,,,0.00,308,Wunderground v.1.15,2013-07-10 13:49:00,
2013-07-10 07:54:00,61.0,51.1,29.81,WSW,258,0.0,0.0,70,0.00,,,0.00,320,Wunderground v.1.15,2013-07-10 13:54:00,
2013-07-10 07:59:00,61.8,51.1,29.81,West,259,0.0,0.0,68,0.00,,,0.00,369,Wunderground v.1.15,2013-07-10 13:59:00,
2013-07-10 08:04:00,62.4,51.3,29.81,West,259,0.0,0.0,67,0.00,,,0.00,366,Wunderground v.1.15,2013-07-10 14:04:00,
2013-07-10 08:09:00,62.9,50.1,29.81,West,259,6.0,7.0,63,0.00,,,0.00,334,Wunderground v.1.15,2013-07-10 14:09:00,
2013-07-10 08:14:00,63.5,50.2,29.82,West,259,0.0,8.0,62,0.00,,,0.00,272,Wunderground v.1.15,2013-07-10 14:14:00,
2013-07-10 08:19:00,64.0,51.1,29.82,West,259,0.0,8.0,63,0.00,,,0.00,367,Wunderground v.1.15,2013-07-10 14:19:00,
2013-07-10 08:24:00,64.5,50.7,29.82,West,259,0.0,2.0,61,0.00,,,0.00,394,Wunderground v.1.15,2013-07-10 14:24:00,
2013-07-10 08:29:00,65.0,50.8,29.81,West,259,0.0,2.0,60,0.00,,,0.00,346,Wunderground v.1.15,2013-07-10 14:29:00,
2013-07-10 08:34:00,65.5,51.2,29.81,West,261,0.0,0.0,60,0.00,,,0.00,197,Wunderground v.1.15,2013-07-10 14:34:00,
2013-07-10 08:39:00,65.8,51.5,29.81,West,261,0.0,0.0,60,0.00,,,0.00,227,Wunderground v.1.15,2013-07-10 14:39:00,
2013-07-10 08:44:00,66.1,51.8,29.82,West,262,0.0,0.0,60,0.00,,,0.00,432,Wunderground v.1.15,2013-07-10 14:44:00,
2013-07-10 08:49:00,66.3,51.1,29.82,West,262,0.0,0.0,58,0.00,,,0.00,422,Wunderground v.1.15,2013-07-10 14:49:00,
2013-07-10 08:55:00,66.6,51.4,29.82,West,262,0.0,0.0,58,0.00,,,0.00,522,Wunderground v.1.15,2013-07-10 14:55:00,
2013-07-10 09:00:00,66.9,51.6,29.82,West,263,0.0,0.0,58,0.00,,,0.00,482,Wunderground v.1.15,2013-07-10 15:00:00,
2013-07-10 09:06:00,67.6,52.3,29.82,West,263,0.0,0.0,58,0.00,,,0.00,520,Wunderground v.1.15,2013-07-10 15:06:00,
2013-07-10 09:11:00,68.3,52.9,29.82,West,263,0.0,0.0,58,0.00,,,0.00,555,Wunderground v.1.15,2013-07-10 15:11:00,
2013-07-10 09:16:00,68.8,53.4,29.81,West,263,0.0,0.0,58,0.00,,,0.00,554,Wunderground v.1.15,2013-07-10 15:16:00,
2013-07-10 09:21:00,69.4,53.5,29.81,West,263,0.0,0.0,57,0.00,,,0.00,635,Wunderground v.1.15,2013-07-10 15:21:00,
2013-07-10 09:26:00,70.1,52.2,29.81,West,261,0.0,0.0,53,0.00,,,0.00,657,Wunderground v.1.15,2013-07-10 15:26:00,
2013-07-10 09:31:00,70.9,50.2,29.81,West,263,0.0,0.0,48,0.00,,,0.00,461,Wunderground v.1.15,2013-07-10 15:31:00,
2013-07-10 09:36:00,71.8,52.7,29.81,West,263,0.0,0.0,51,0.00,,,0.00,657,Wunderground v.1.15,2013-07-10 15:36:00,
2013-07-10 09:43:00,72.7,51.9,29.81,West,265,0.0,0.0,48,0.00,,,0.00,622,Wunderground v.1.15,2013-07-10 15:43:00,
2013-07-10 09:48:00,73.5,53.2,29.80,West,268,0.0,0.0,49,0.00,,,0.00,584,Wunderground v.1.15,2013-07-10 15:48:00,
2013-07-10 09:53:00,73.9,52.4,29.80,West,268,0.0,0.0,47,0.00,,,0.00,628,Wunderground v.1.15,2013-07-10 15:53:00,
2013-07-10 09:58:00,74.2,52.1,29.80,WNW,302,0.0,0.0,46,0.00,,,0.00,719,Wunderground v.1.15,2013-07-10 15:58:00,
2013-07-10 10:03:00,74.6,51.9,29.80,WNW,302,0.0,0.0,45,0.00,,,0.00,729,Wunderground v.1.15,2013-07-10 16:03:00,
2013-07-10 10:08:00,75.3,51.9,29.80,WNW,302,0.0,0.0,44,0.00,,,0.00,751,Wunderground v.1.15,2013-07-10 16:08:00,
2013-07-10 10:13:00,75.8,52.9,29.80,WNW,301,0.0,0.0,45,0.00,,,0.00,763,Wunderground v.1.15,2013-07-10 16:13:00,
2013-07-10 10:18:00,76.5,51.0,29.79,WNW,301,0.0,0.0,41,0.00,,,0.00,754,Wunderground v.1.15,2013-07-10 16:18:00,
2013-07-10 10:23:00,77.2,51.7,29.79,WNW,301,0.0,0.0,41,0.00,,,0.00,758,Wunderground v.1.15,2013-07-10 16:23:00,
2013-07-10 10:29:00,77.6,50.7,29.79,WNW,301,0.0,0.0,39,0.00,,,0.00,761,Wunderground v.1.15,2013-07-10 16:29:00,
2013-07-10 10:34:00,77.7,52.8,29.79,WNW,299,0.0,0.0,42,0.00,,,0.00,765,Wunderground v.1.15,2013-07-10 16:34:00,
2013-07-10 10:39:00,78.1,53.1,29.79,WNW,294,5.0,9.0,42,0.00,,,0.00,772,Wunderground v.1.15,2013-07-10 16:39:00,
2013-07-10 10:44:00,77.9,51.6,29.79,WNW,291,6.0,10.0,40,0.00,,,0.00,782,Wunderground v.1.15,2013-07-10 16:44:00,
2013-07-10 10:49:00,77.9,53.6,29.79,WNW,291,5.0,10.0,43,0.00,,,0.00,791,Wunderground v.1.15,2013-07-10 16:49:00,
2013-07-10 10:54:00,77.9,52.3,29.79,WNW,290,0.0,9.0,41,0.00,,,0.00,800,Wunderground v.1.15,2013-07-10 16:54:00,
2013-07-10 10:59:00,77.9,49.5,29.79,WNW,290,0.0,9.0,37,0.00,,,0.00,812,Wunderground v.1.15,2013-07-10 16:59:00,
2013-07-10 11:04:00,77.9,48.0,29.79,WNW,290,0.0,1.0,35,0.00,,,0.00,821,Wunderground v.1.15,2013-07-10 17:04:00,
2013-07-10 11:09:00,78.1,49.7,29.79,WNW,290,1.0,4.0,37,0.00,,,0.00,835,Wunderground v.1.15,2013-07-10 17:09:00,
2013-07-10 11:14:00,78.1,49.7,29.77,WNW,290,1.0,5.0,37,0.00,,,0.00,847,Wunderground v.1.15,2013-07-10 17:14:00,
2013-07-10 11:19:00,78.3,49.9,29.77,WNW,290,0.0,5.0,37,0.00,,,0.00,858,Wunderground v.1.15,2013-07-10 17:19:00,
2013-07-10 11:24:00,78.6,50.9,29.77,WNW,290,0.0,1.0,38,0.00,,,0.00,872,Wunderground v.1.15,2013-07-10 17:24:00,
2013-07-10 11:29:00,79.2,49.2,29.77,WNW,290,0.0,1.0,35,0.00,,,0.00,889,Wunderground v.1.15,2013-07-10 17:29:00,
2013-07-10 11:34:00,79.6,50.3,29.77,WNW,290,0.0,0.0,36,0.00,,,0.00,911,Wunderground v.1.15,2013-07-10 17:34:00,
2013-07-10 11:39:00,79.9,49.0,29.77,WNW,290,0.0,0.0,34,0.00,,,0.00,935,Wunderground v.1.15,2013-07-10 17:39:00,
2013-07-10 11:44:00,80.3,51.7,29.76,WNW,290,1.0,5.0,37,0.00,,,0.00,972,Wunderground v.1.15,2013-07-10 17:44:00,
2013-07-10 11:53:00,80.9,50.7,29.76,WNW,290,5.0,5.0,35,0.00,,,0.00,1056,Wunderground v.1.15,2013-07-10 17:53:00,
2013-07-10 11:58:00,81.6,49.7,29.76,WNW,289,7.0,9.0,33,0.00,,,0.00,926,Wunderground v.1.15,2013-07-10 17:58:00,
2013-07-10 12:03:00,82.2,48.6,29.76,WNW,288,0.0,6.0,31,0.00,,,0.00,1092,Wunderground v.1.15,2013-07-10 18:03:00,
2013-07-10 12:08:00,82.4,47.8,29.76,WNW,288,2.0,6.0,30,0.00,,,0.00,1078,Wunderground v.1.15,2013-07-10 18:08:00,
2013-07-10 12:14:00,82.8,49.9,29.75,WNW,288,7.0,7.0,32,0.00,,,0.00,1081,Wunderground v.1.15,2013-07-10 18:14:00,
2013-07-10 12:19:00,83.6,49.8,29.75,WNW,288,0.0,7.0,31,0.00,,,0.00,1102,Wunderground v.1.15,2013-07-10 18:19:00,
2013-07-10 12:24:00,84.0,47.4,29.75,WNW,288,0.0,7.0,28,0.00,,,0.00,1113,Wunderground v.1.15,2013-07-10 18:24:00,
2013-07-10 12:29:00,84.3,48.6,29.75,SW,229,8.0,13.0,29,0.00,,,0.00,1100,Wunderground v.1.15,2013-07-10 18:29:00,
2013-07-10 12:34:00,84.9,50.0,29.75,SSW,202,14.0,14.0,30,0.00,,,0.00,1102,Wunderground v.1.15,2013-07-10 18:34:00,
2013-07-10 12:41:00,85.3,47.5,29.75,SSW,201,5.0,8.0,27,0.00,,,0.00,1121,Wunderground v.1.15,2013-07-10 18:41:00,
2013-07-10 12:47:00,85.7,48.8,29.74,SSW,201,6.0,11.0,28,0.00,,,0.00,1127,Wunderground v.1.15,2013-07-10 18:47:00,
2013-07-10 12:52:00,85.7,46.9,29.74,SSW,201,7.0,10.0,26,0.00,,,0.00,1118,Wunderground v.1.15,2013-07-10 18:52:00,
2013-07-10 12:57:00,85.7,51.6,29.74,SSW,201,6.0,10.0,31,0.00,,,0.00,1150,Wunderground v.1.15,2013-07-10 18:57:00,
2013-07-10 13:02:00,85.9,50.0,29.74,SSW,201,3.0,9.0,29,0.00,,,0.00,1171,Wunderground v.1.15,2013-07-10 19:02:00,
2013-07-10 13:07:00,85.9,49.0,29.74,SSW,201,0.0,9.0,28,0.00,,,0.00,1206,Wunderground v.1.15,2013-07-10 19:07:00,
2013-07-10 13:12:00,86.1,49.2,29.74,SSW,201,11.0,13.0,28,0.00,,,0.00,918,Wunderground v.1.15,2013-07-10 19:12:00,
2013-07-10 13:17:00,85.7,48.8,29.73,SSW,201,4.0,13.0,28,0.00,,,0.00,464,Wunderground v.1.15,2013-07-10 19:17:00,
2013-07-10 13:23:00,85.5,49.6,29.73,SSW,201,3.0,10.0,29,0.00,,,0.00,1234,Wunderground v.1.15,2013-07-10 19:23:00,
2013-07-10 13:28:00,85.7,50.7,29.73,SSW,201,2.0,10.0,30,0.00,,,0.00,1107,Wunderground v.1.15,2013-07-10 19:28:00,
2013-07-10 13:36:00,86.1,51.0,29.72,SSW,197,3.0,13.0,30,0.00,,,0.00,984,Wunderground v.1.15,2013-07-10 19:36:00,
2013-07-10 13:41:00,86.3,49.4,29.72,SSW,192,9.0,15.0,28,0.00,,,0.00,965,Wunderground v.1.15,2013-07-10 19:41:00,
2013-07-10 13:47:00,86.3,48.4,29.71,SSW,192,6.0,15.0,27,0.00,,,0.00,962,Wunderground v.1.15,2013-07-10 19:47:00,
2013-07-10 13:52:00,86.3,50.3,29.71,SSW,199,12.0,15.0,29,0.00,,,0.00,594,Wunderground v.1.15,2013-07-10 19:52:00,
2013-07-10 13:57:00,85.9,48.0,29.71,SSW,199,4.0,15.0,27,0.00,,,0.00,657,Wunderground v.1.15,2013-07-10 19:57:00,
2013-07-10 14:03:00,85.5,47.7,29.71,SSW,199,6.0,7.0,27,0.00,,,0.00,381,Wunderground v.1.15,2013-07-10 20:03:00,
2013-07-10 14:08:00,85.1,48.3,29.71,SSW,199,4.0,7.0,28,0.00,,,0.00,292,Wunderground v.1.15,2013-07-10 20:08:00,
2013-07-10 14:13:00,84.3,47.6,29.71,SSW,199,4.0,10.0,28,0.00,,,0.00,246,Wunderground v.1.15,2013-07-10 20:13:00,
2013-07-10 14:18:00,83.6,49.8,29.71,SSW,199,4.0,10.0,31,0.00,,,0.00,206,Wunderground v.1.15,2013-07-10 20:18:00,
2013-07-10 14:24:00,82.8,48.2,29.71,SSW,199,6.0,10.0,30,0.00,,,0.00,176,Wunderground v.1.15,2013-07-10 20:24:00,
2013-07-10 14:29:00,81.8,47.3,29.72,SSW,199,9.0,10.0,30,0.00,,,0.00,151,Wunderground v.1.15,2013-07-10 20:29:00,
2013-07-10 14:34:00,80.9,46.6,29.72,SSW,199,9.0,10.0,30,0.00,,,0.00,134,Wunderground v.1.15,2013-07-10 20:34:00,
2013-07-10 14:39:00,80.1,47.6,29.72,SSW,199,6.0,10.0,32,0.00,,,0.00,120,Wunderground v.1.15,2013-07-10 20:39:00,
2013-07-10 14:44:00,79.6,47.1,29.71,SSW,199,7.0,8.0,32,0.00,,,0.00,105,Wunderground v.1.15,2013-07-10 20:44:00,
2013-07-10 14:49:00,79.0,51.2,29.71,West,275,13.0,17.0,38,0.00,,,0.00,95,Wunderground v.1.15,2013-07-10 20:49:00,
2013-07-10 14:54:00,78.5,52.2,29.71,West,279,9.0,13.0,40,0.00,,,0.00,88,Wunderground v.1.15,2013-07-10 20:54:00,
2013-07-10 14:59:00,77.9,52.3,29.71,West,279,12.0,14.0,41,0.00,,,0.00,84,Wunderground v.1.15,2013-07-10 20:59:00,
2013-07-10 15:04:00,77.2,51.7,29.71,West,279,13.0,14.0,41,0.00,,,0.00,83,Wunderground v.1.15,2013-07-10 21:04:00,
2013-07-10 15:09:00,76.5,52.3,29.71,West,277,12.0,14.0,43,0.00,,,0.00,81,Wunderground v.1.15,2013-07-10 21:09:00,
2013-07-10 15:14:00,75.6,50.2,29.71,West,269,16.0,17.0,41,0.00,,,0.00,81,Wunderground v.1.15,2013-07-10 21:14:00,
2013-07-10 15:19:00,74.9,47.6,29.71,West,267,21.0,24.0,38,0.00,,,0.00,90,Wunderground v.1.15,2013-07-10 21:19:00,
2013-07-10 15:24:00,74.2,45.5,29.71,West,264,27.0,27.0,36,0.00,,,0.00,105,Wunderground v.1.15,2013-07-10 21:24:00,
2013-07-10 15:29:00,73.7,45.1,29.70,West,277,23.0,28.0,36,0.00,,,0.00,113,Wunderground v.1.15,2013-07-10 21:29:00,
2013-07-10 15:34:00,73.9,43.0,29.70,WSW,253,29.0,32.0,33,0.00,,,0.00,109,Wunderground v.1.15,2013-07-10 21:34:00,
2013-07-10 15:39:00,73.7,38.6,29.70,SE,144,1.0,34.0,28,0.00,,,0.00,134,Wunderground v.1.15,2013-07-10 21:39:00,
2013-07-10 15:44:00,73.7,46.5,29.69,South,180,9.0,17.0,38,0.00,,,0.00,185,Wunderground v.1.15,2013-07-10 21:44:00,
2013-07-10 15:49:00,73.7,41.2,29.69,WSW,252,17.0,19.0,31,0.00,,,0.00,221,Wunderground v.1.15,2013-07-10 21:49:00,
2013-07-10 15:54:00,73.7,42.8,29.69,WSW,238,15.0,18.0,33,0.00,,,0.00,272,Wunderground v.1.15,2013-07-10 21:54:00,
2013-07-10 15:59:00,73.9,43.8,29.67,SW,224,8.0,18.0,34,0.00,,,0.00,336,Wunderground v.1.15,2013-07-10 21:59:00,
2013-07-10 16:04:00,74.2,43.2,29.67,SW,224,8.0,12.0,33,0.00,,,0.00,497,Wunderground v.1.15,2013-07-10 22:04:00,
2013-07-10 16:09:00,74.6,45.1,29.67,SW,226,10.0,12.0,35,0.00,,,0.00,496,Wunderground v.1.15,2013-07-10 22:09:00,
2013-07-10 16:14:00,75.1,44.0,29.67,West,264,14.0,19.0,33,0.00,,,0.00,413,Wunderground v.1.15,2013-07-10 22:14:00,
2013-07-10 16:19:00,75.6,42.8,29.67,West,271,19.0,21.0,31,0.00,,,0.00,338,Wunderground v.1.15,2013-07-10 22:19:00,
2013-07-10 16:24:00,76.1,50.0,29.67,West,272,12.0,20.0,40,0.00,,,0.00,754,Wunderground v.1.15,2013-07-10 22:24:00,
2013-07-10 16:30:00,76.7,49.9,29.65,West,274,18.0,18.0,39,0.00,,,0.00,766,Wunderground v.1.15,2013-07-10 22:30:00,
2013-07-10 16:35:00,77.4,46.8,29.65,West,268,17.0,21.0,34,0.00,,,0.00,789,Wunderground v.1.15,2013-07-10 22:35:00,
2013-07-10 16:40:00,78.3,46.0,29.65,WSW,247,16.0,17.0,32,0.00,,,0.00,694,Wunderground v.1.15,2013-07-10 22:40:00,
2013-07-10 16:45:00,79.0,45.8,29.65,WSW,246,19.0,22.0,31,0.00,,,0.00,722,Wunderground v.1.15,2013-07-10 22:45:00,
2013-07-10 16:50:00,79.6,47.1,29.65,WSW,254,17.0,17.0,32,0.00,,,0.00,677,Wunderground v.1.15,2013-07-10 22:50:00,
2013-07-10 16:55:00,79.9,43.9,29.65,WSW,242,20.0,22.0,28,0.00,,,0.00,703,Wunderground v.1.15,2013-07-10 22:55:00,
2013-07-10 17:00:00,79.9,46.6,29.65,WSW,246,9.0,17.0,31,0.00,,,0.00,645,Wunderground v.1.15,2013-07-10 23:00:00,
2013-07-10 17:05:00,79.9,44.8,29.65,WSW,242,16.0,20.0,29,0.00,,,0.00,313,Wunderground v.1.15,2013-07-10 23:05:00,
2013-07-10 17:10:00,79.8,46.5,29.65,SW,227,18.0,18.0,31,0.00,,,0.00,295,Wunderground v.1.15,2013-07-10 23:10:00,
2013-07-10 17:15:00,79.4,45.3,29.66,SW,234,9.0,20.0,30,0.00,,,0.00,272,Wunderground v.1.15,2013-07-10 23:15:00,
2013-07-10 17:20:00,79.0,46.6,29.66,SW,220,6.0,13.0,32,0.00,,,0.00,250,Wunderground v.1.15,2013-07-10 23:20:00,
2013-07-10 17:25:00,78.6,48.7,29.66,SW,214,5.0,13.0,35,0.00,,,0.00,279,Wunderground v.1.15,2013-07-10 23:25:00,
2013-07-10 17:30:00,78.3,47.6,29.66,SSW,200,16.0,16.0,34,0.00,,,0.00,246,Wunderground v.1.15,2013-07-10 23:30:00,
2013-07-10 17:35:00,77.9,45.7,29.66,SSW,202,9.0,16.0,32,0.00,,,0.00,271,Wunderground v.1.15,2013-07-10 23:35:00,
2013-07-10 17:40:00,77.9,48.8,29.66,SSW,204,9.0,10.0,36,0.00,,,0.00,429,Wunderground v.1.15,2013-07-10 23:40:00,
2013-07-10 17:45:00,77.9,49.5,29.65,SSW,204,10.0,12.0,37,0.00,,,0.00,396,Wunderground v.1.15,2013-07-10 23:45:00,
2013-07-10 17:50:00,77.9,48.8,29.65,SSW,204,6.0,8.0,36,0.00,,,0.00,223,Wunderground v.1.15,2013-07-10 23:50:00,
2013-07-10 17:56:00,77.9,48.0,29.65,SSW,204,3.0,9.0,35,0.00,,,0.00,206,Wunderground v.1.15,2013-07-10 23:56:00,
2013-07-10 18:01:00,77.9,54.8,29.65,SSW,204,6.0,7.0,45,0.00,,,0.00,163,Wunderground v.1.15,2013-07-11 00:01:00,
2013-07-10 18:06:00,77.4,54.4,29.65,SSW,204,0.0,7.0,45,0.00,,,0.00,88,Wunderground v.1.15,2013-07-11 00:06:00,
2013-07-10 18:11:00,77.2,52.3,29.65,SSW,204,9.0,9.0,42,0.00,,,0.00,76,Wunderground v.1.15,2013-07-11 00:11:00,
2013-07-10 18:16:00,75.6,53.4,29.65,SSE,160,19.0,26.0,46,0.00,,,0.00,63,Wunderground v.1.15,2013-07-11 00:16:00,
2013-07-10 18:23:00,73.2,52.9,29.65,SSE,165,17.0,22.0,49,0.00,,,0.00,72,Wunderground v.1.15,2013-07-11 00:23:00,
2013-07-10 18:28:00,72.0,51.8,29.65,SSE,163,14.0,22.0,49,0.00,,,0.00,77,Wunderground v.1.15,2013-07-11 00:28:00,
2013-07-10 18:34:00,70.8,52.3,29.65,SSE,166,20.0,22.0,52,0.00,,,0.00,95,Wunderground v.1.15,2013-07-11 00:34:00,
2013-07-10 18:39:00,70.1,51.7,29.65,SSE,167,19.0,26.0,52,0.00,,,0.00,320,Wunderground v.1.15,2013-07-11 00:39:00,
2013-07-10 18:44:00,69.8,51.4,29.65,South,173,17.0,24.0,52,0.00,,,0.00,83,Wunderground v.1.15,2013-07-11 00:44:00,
2013-07-10 18:49:00,69.4,51.5,29.65,South,171,20.0,24.0,53,0.00,,,0.00,113,Wunderground v.1.15,2013-07-11 00:49:00,
2013-07-10 18:54:00,69.3,51.9,29.65,SSE,161,15.0,21.0,54,0.00,,,0.00,274,Wunderground v.1.15,2013-07-11 00:54:00,
2013-07-10 18:59:00,69.3,51.9,29.65,SSE,161,14.0,22.0,54,0.00,,,0.00,244,Wunderground v.1.15,2013-07-11 00:59:00,
2013-07-10 19:04:00,69.3,52.4,29.65,SSE,158,15.0,20.0,55,0.00,,,0.00,229,Wunderground v.1.15,2013-07-11 01:04:00,
2013-07-10 19:09:00,69.1,52.2,29.65,SSE,157,15.0,20.0,55,0.00,,,0.00,188,Wunderground v.1.15,2013-07-11 01:09:00,
2013-07-10 19:14:00,69.1,52.2,29.66,SSE,154,12.0,18.0,55,0.00,,,0.00,105,Wunderground v.1.15,2013-07-11 01:14:00,
2013-07-10 19:19:00,68.8,52.0,29.66,SSE,153,13.0,18.0,55,0.00,,,0.00,53,Wunderground v.1.15,2013-07-11 01:19:00,
2013-07-10 19:24:00,68.6,52.8,29.66,SSE,153,10.0,17.0,57,0.00,,,0.00,155,Wunderground v.1.15,2013-07-11 01:24:00,
2013-07-10 19:29:00,68.3,52.5,29.66,SSE,153,14.0,17.0,57,0.00,,,0.00,116,Wunderground v.1.15,2013-07-11 01:29:00,
2013-07-10 19:34:00,67.9,52.1,29.66,SSE,152,10.0,16.0,57,0.00,,,0.00,37,Wunderground v.1.15,2013-07-11 01:34:00,
2013-07-10 19:39:00,67.6,52.3,29.66,SSE,153,13.0,16.0,58,0.00,,,0.00,33,Wunderground v.1.15,2013-07-11 01:39:00,
2013-07-10 19:44:00,67.3,52.5,29.67,SSE,152,8.0,14.0,59,0.00,,,0.00,30,Wunderground v.1.15,2013-07-11 01:44:00,
2013-07-10 19:49:00,66.8,52.0,29.67,SSE,152,13.0,14.0,59,0.00,,,0.00,30,Wunderground v.1.15,2013-07-11 01:49:00,
2013-07-10 19:54:00,66.3,52.0,29.67,SSE,150,12.0,14.0,60,0.00,,,0.00,30,Wunderground v.1.15,2013-07-11 01:54:00,
2013-07-10 19:59:00,65.8,52.0,29.67,SSE,151,10.0,14.0,61,0.00,,,0.00,28,Wunderground v.1.15,2013-07-11 01:59:00,
2013-07-10 20:04:00,65.5,52.1,29.67,SSE,151,6.0,13.0,62,0.00,,,0.00,25,Wunderground v.1.15,2013-07-11 02:04:00,
2013-07-10 20:09:00,65.2,52.3,29.67,SSE,151,5.0,13.0,63,0.00,,,0.00,21,Wunderground v.1.15,2013-07-11 02:09:00,
2013-07-10 20:14:00,64.8,52.3,29.68,SSE,151,5.0,13.0,64,0.00,,,0.00,16,Wunderground v.1.15,2013-07-11 02:14:00,
2013-07-10 20:19:00,64.5,51.6,29.68,SSE,150,10.0,13.0,63,0.00,,,0.00,12,Wunderground v.1.15,2013-07-11 02:19:00,
2013-07-10 20:24:00,64.2,51.8,29.68,SSE,148,10.0,13.0,64,0.00,,,0.00,9,Wunderground v.1.15,2013-07-11 02:24:00,
2013-07-10 20:29:00,63.9,51.5,29.68,SSE,148,7.0,13.0,64,0.00,,,0.00,7,Wunderground v.1.15,2013-07-11 02:29:00,
2013-07-10 20:34:00,63.5,51.5,29.68,SE,146,8.0,9.0,65,0.00,,,0.00,0,Wunderground v.1.15,2013-07-11 02:34:00,
2013-07-10 20:40:00,63.2,51.2,29.68,SE,146,9.0,9.0,65,0.00,,,0.00,0,Wunderground v.1.15,2013-07-11 02:40:00,
2013-07-10 20:45:00,62.9,51.0,29.68,SE,146,11.0,13.0,65,0.00,,,0.00,0,Wunderground v.1.15,2013-07-11 02:45:00,
2013-07-10 20:50:00,62.7,50.8,29.68,SE,146,7.0,9.0,65,0.00,,,0.00,0,Wunderground v.1.15,2013-07-11 02:50:00,
2013-07-10 20:55:00,62.6,50.7,29.68,SE,146,12.0,12.0,65,0.00,,,0.00,0,Wunderground v.1.15,2013-07-11 02:55:00,
2013-07-10 21:00:00,62.1,50.6,29.69,SE,146,8.0,10.0,66,0.00,,,0.00,0,Wunderground v.1.15,2013-07-11 03:00:00,
2013-07-10 21:05:00,62.0,50.5,29.69,SE,146,9.0,11.0,66,0.00,,,0.00,0,Wunderground v.1.15,2013-07-11 03:05:00,
2013-07-10 21:10:00,61.8,50.3,29.69,SE,144,9.0,11.0,66,0.00,,,0.00,0,Wunderground v.1.15,2013-07-11 03:10:00,
2013-07-10 21:16:00,61.8,50.3,29.71,SE,144,8.0,15.0,66,0.00,,,0.00,0,Wunderground v.1.15,2013-07-11 03:16:00,
2013-07-10 21:21:00,61.6,50.5,29.71,SE,144,9.0,10.0,67,0.00,,,0.00,0,Wunderground v.1.15,2013-07-11 03:21:00,
2013-07-10 21:27:00,61.3,50.6,29.71,SE,144,5.0,11.0,68,0.00,,,0.00,0,Wunderground v.1.15,2013-07-11 03:27:00,
2013-07-10 21:32:00,61.2,50.2,29.72,SE,144,8.0,9.0,67,0.00,,,0.00,0,Wunderground v.1.15,2013-07-11 03:32:00,
2013-07-10 21:37:00,60.9,49.9,29.72,SE,144,8.0,10.0,67,0.00,,,0.00,0,Wunderground v.1.15,2013-07-11 03:37:00,
2013-07-10 21:43:00,60.7,49.7,29.72,SE,144,11.0,11.0,67,0.00,,,0.00,0,Wunderground v.1.15,2013-07-11 03:43:00,
2013-07-10 21:48:00,60.9,49.1,29.73,SE,144,9.0,14.0,65,0.00,,,0.00,0,Wunderground v.1.15,2013-07-11 03:48:00,
2013-07-10 21:54:00,60.9,49.5,29.73,SE,144,7.0,12.0,66,0.00,,,0.00,0,Wunderground v.1.15,2013-07-11 03:54:00,
2013-07-10 21:59:00,60.7,49.7,29.74,SE,144,10.0,12.0,67,0.00,,,0.00,0,Wunderground v.1.15,2013-07-11 03:59:00,
2013-07-10 22:01:00,60.7,49.7,29.74,SE,144,6.0,9.0,67,0.00,,,0.00,0,Wunderground v.1.15,2013-07-11 04:01:00,
2013-07-10 22:06:00,60.5,49.9,29.74,SE,144,8.0,9.0,68,0.00,,,0.00,0,Wunderground v.1.15,2013-07-11 04:06:00,
2013-07-10 22:11:00,60.2,49.6,29.74,SE,144,7.0,8.0,68,0.00,,,0.00,0,Wunderground v.1.15,2013-07-11 04:11:00,
2013-07-10 22:16:00,59.9,49.7,29.75,SE,144,6.0,8.0,69,0.00,,,0.00,0,Wunderground v.1.15,2013-07-11 04:16:00,
2013-07-10 22:21:00,59.8,50.0,29.75,SE,144,7.0,10.0,70,0.00,,,0.00,0,Wunderground v.1.15,2013-07-11 04:21:00,
2013-07-10 22:26:00,59.5,49.7,29.75,SE,144,8.0,10.0,70,0.00,,,0.00,0,Wunderground v.1.15,2013-07-11 04:26:00,
2013-07-10 22:31:00,59.2,49.8,29.75,SE,144,9.0,9.0,71,0.00,,,0.00,0,Wunderground v.1.15,2013-07-11 04:31:00,
2013-07-10 22:37:00,58.9,49.9,29.75,SE,144,7.0,10.0,72,0.00,,,0.00,0,Wunderground v.1.15,2013-07-11 04:37:00,
2013-07-10 22:42:00,58.6,49.6,29.75,SE,144,1.0,8.0,72,0.00,,,0.00,0,Wunderground v.1.15,2013-07-11 04:42:00,
2013-07-10 22:47:00,58.4,49.4,29.76,SE,144,0.0,8.0,72,0.00,,,0.00,0,Wunderground v.1.15,2013-07-11 04:47:00,
2013-07-10 22:52:00,58.3,49.3,29.76,SE,144,0.0,2.0,72,0.00,,,0.00,0,Wunderground v.1.15,2013-07-11 04:52:00,
2013-07-10 22:57:00,58.1,49.5,29.76,SE,144,0.0,2.0,73,0.00,,,0.00,0,Wunderground v.1.15,2013-07-11 04:57:00,
2013-07-10 23:02:00,58.1,49.5,29.76,SE,144,0.0,0.0,73,0.00,,,0.00,0,Wunderground v.1.15,2013-07-11 05:02:00,
2013-07-10 23:07:00,58.0,50.1,29.76,SE,144,0.0,0.0,75,0.00,,,0.00,0,Wunderground v.1.15,2013-07-11 05:07:00,
2013-07-10 23:12:00,58.0,50.1,29.76,SE,144,0.0,0.0,75,0.00,,,0.00,0,Wunderground v.1.15,2013-07-11 05:12:00,
2013-07-10 23:17:00,57.8,49.9,29.76,SE,144,0.0,0.0,75,0.00,,,0.00,0,Wunderground v.1.15,2013-07-11 05:17:00,
2013-07-10 23:23:00,57.6,49.7,29.76,SE,144,0.0,0.0,75,0.00,,,0.00,0,Wunderground v.1.15,2013-07-11 05:23:00,
2013-07-10 23:28:00,57.6,49.7,29.76,SE,144,0.0,0.0,75,0.00,,,0.00,0,Wunderground v.1.15,2013-07-11 05:28:00,
2013-07-10 23:34:00,57.5,49.6,29.76,SE,144,0.0,0.0,75,0.00,,,0.00,0,Wunderground v.1.15,2013-07-11 05:34:00,
2013-07-10 23:39:00,57.5,50.0,29.76,SE,144,0.0,0.0,76,0.00,,,0.00,0,Wunderground v.1.15,2013-07-11 05:39:00,
2013-07-10 23:44:00,57.3,49.8,29.76,SE,144,0.0,0.0,76,0.00,,,0.00,0,Wunderground v.1.15,2013-07-11 05:44:00,
2013-07-10 23:49:00,57.2,49.7,29.76,SE,144,9.0,10.0,76,0.00,,,0.00,0,Wunderground v.1.15,2013-07-11 05:49:00,
2013-07-10 23:54:00,57.2,49.7,29.76,SE,144,0.0,9.0,76,0.00,,,0.00,0,Wunderground v.1.15,2013-07-11 05:54:00,
2013-07-10 23:59:00,57.0,49.5,29.76,SE,144,0.0,9.0,76,0.00,,,0.00,0,Wunderground v.1.15,2013-07-11 05:59:00,